TimeEDT,TemperatureF,Dew PointF,Humidity,Sea Level PressureIn,VisibilityMPH,Wind Direction,Wind SpeedMPH,Gust SpeedMPH,PrecipitationIn,Events,Conditions,WindDirDegrees,DateUTC
12:21 AM,66.2,64.4,94,29.79,5.0,Calm,Calm,-,N/A,,Mostly Cloudy,0,2013-07-11 04:21:00
12:36 AM,66.2,64.4,94,29.79,5.0,Calm,Calm,-,N/A,,Overcast,0,2013-07-11 04:36:00
12:52 AM,66.0,64.0,93,29.78,5.0,Calm,Calm,-,N/A,,Mostly Cloudy,0,2013-07-11 04:52:00
1:04 AM,66.2,62.6,88,29.79,5.0,Calm,Calm,-,N/A,,Scattered Clouds,0,2013-07-11 05:04:00
1:09 AM,66.2,62.6,88,29.79,1.8,Calm,Calm,-,N/A,,Partly Cloudy,0,2013-07-11 05:09:00
1:17 AM,64.4,62.6,94,29.78,3.0,Calm,Calm,-,N/A,,Partly Cloudy,0,2013-07-11 05:17:00
1:32 AM,64.4,62.6,94,29.78,1.8,Calm,Calm,-,N/A,,Scattered Clouds,0,2013-07-11 05:32:00
1:35 AM,64.4,62.6,94,29.78,1.0,Calm,Calm,-,N/A,,Mist,0,2013-07-11 05:35:00
1:42 AM,64.4,62.6,94,29.78,0.5,Calm,Calm,-,N/A,Fog,Fog,0,2013-07-11 05:42:00
1:52 AM,64.9,62.1,90,29.77,0.5,Calm,Calm,-,N/A,Fog,Fog,0,2013-07-11 05:52:00
2:08 AM,64.4,62.6,94,29.78,1.0,Calm,Calm,-,N/A,,Overcast,0,2013-07-11 06:08:00
2:15 AM,64.4,62.6,94,29.77,0.5,Calm,Calm,-,N/A,Fog,Fog,0,2013-07-11 06:15:00
2:27 AM,64.4,62.6,94,29.77,1.0,Calm,Calm,-,N/A,,Overcast,0,2013-07-11 06:27:00
2:33 AM,64.4,62.6,94,29.77,1.2,Calm,Calm,-,N/A,,Overcast,0,2013-07-11 06:33:00
2:47 AM,64.0,62.1,93,29.75,3.0,Calm,Calm,-,N/A,,Mostly Cloudy,0,2013-07-11 06:47:00
2:55 AM,64.4,62.6,94,29.77,5.0,Calm,Calm,-,N/A,,Mostly Cloudy,0,2013-07-11 06:55:00
3:09 AM,64.4,62.6,94,29.78,4.0,Calm,Calm,-,N/A,,Mostly Cloudy,0,2013-07-11 07:09:00
3:24 AM,64.4,62.6,94,29.78,5.0,Calm,Calm,-,N/A,,Mostly Cloudy,0,2013-07-11 07:24:00
3:38 AM,64.4,60.8,88,29.78,8.0,Calm,Calm,-,N/A,,Scattered Clouds,0,2013-07-11 07:38:00
3:48 AM,64.4,62.6,94,29.78,9.0,Calm,Calm,-,N/A,,Mostly Cloudy,0,2013-07-11 07:48:00
3:52 AM,64.0,62.1,93,29.77,9.0,Calm,Calm,-,N/A,,Mostly Cloudy,0,2013-07-11 07:52:00
3:59 AM,64.4,62.6,94,29.78,9.0,Calm,Calm,-,N/A,,Mostly Cloudy,0,2013-07-11 07:59:00
4:12 AM,64.4,62.6,94,29.79,10.0,Calm,Calm,-,N/A,Thunderstorm,Mostly Cloudy,0,2013-07-11 08:12:00
4:24 AM,64.4,62.6,94,29.80,9.0,WNW,3.5,-,N/A,Thunderstorm,Overcast,300,2013-07-11 08:24:00
4:39 AM,68.0,64.4,88,29.80,6.0,NNE,3.5,-,0.04,Rain,Light Rain,20,2013-07-11 08:39:00
4:52 AM,68.0,64.0,87,29.81,10.0,Calm,Calm,-,0.04,Rain,Light Rain,0,2013-07-11 08:52:00
5:52 AM,66.0,64.0,93,29.82,5.0,Calm,Calm,-,0.00,,Scattered Clouds,0,2013-07-11 09:52:00
6:52 AM,68.0,64.9,90,29.81,6.0,Calm,Calm,-,0.01,Rain,Light Rain,0,2013-07-11 10:52:00
7:52 AM,68.0,64.9,90,29.83,6.0,NW,3.5,-,0.00,Rain,Light Rain,310,2013-07-11 11:52:00
7:58 AM,68.0,64.4,88,29.84,1.5,Calm,Calm,-,0.05,Rain,Light Rain,0,2013-07-11 11:58:00
8:14 AM,68.0,66.2,94,29.85,2.5,Calm,Calm,-,0.08,Rain,Light Rain,0,2013-07-11 12:14:00
8:21 AM,69.8,64.4,83,29.85,5.0,Calm,Calm,-,0.08,Rain,Light Rain,0,2013-07-11 12:21:00
8:48 AM,69.8,66.2,88,29.85,2.0,Calm,Calm,-,0.11,Rain,Light Rain,0,2013-07-11 12:48:00
8:52 AM,69.1,66.0,90,29.84,2.5,Calm,Calm,-,0.11,Rain,Light Rain,0,2013-07-11 12:52:00
9:00 AM,69.8,66.2,88,29.85,3.0,Calm,Calm,-,0.02,Rain,Light Rain,0,2013-07-11 13:00:00
9:52 AM,71.1,66.9,87,29.85,10.0,Calm,Calm,-,0.02,,Overcast,0,2013-07-11 13:52:00
10:09 AM,71.6,66.2,83,29.87,10.0,Calm,Calm,-,N/A,,Overcast,0,2013-07-11 14:09:00
10:19 AM,71.6,66.2,83,29.87,10.0,Calm,Calm,-,N/A,,Overcast,0,2013-07-11 14:19:00
10:28 AM,71.6,66.2,83,29.86,10.0,Calm,Calm,-,N/A,,Overcast,0,2013-07-11 14:28:00
10:40 AM,71.6,66.2,83,29.86,10.0,Calm,Calm,-,N/A,,Overcast,0,2013-07-11 14:40:00
10:46 AM,71.6,66.2,83,29.86,10.0,Calm,Calm,-,N/A,,Overcast,0,2013-07-11 14:46:00
10:52 AM,72.0,66.0,81,29.86,10.0,Calm,Calm,-,N/A,,Overcast,0,2013-07-11 14:52:00
11:02 AM,73.4,66.2,78,29.86,10.0,Calm,Calm,-,N/A,,Overcast,0,2013-07-11 15:02:00
11:37 AM,73.4,64.4,73,29.87,10.0,SW,3.5,-,N/A,,Overcast,230,2013-07-11 15:37:00
11:52 AM,73.0,66.0,79,29.86,10.0,Calm,Calm,-,N/A,,Overcast,0,2013-07-11 15:52:00
12:52 PM,73.0,63.0,71,29.86,10.0,SW,3.5,-,N/A,,Overcast,230,2013-07-11 16:52:00
1:52 PM,73.9,64.0,71,29.87,10.0,Variable,5.8,-,N/A,,Mostly Cloudy,0,2013-07-11 17:52:00
2:52 PM,75.9,64.0,67,29.87,10.0,Variable,3.5,-,N/A,,Mostly Cloudy,0,2013-07-11 18:52:00
3:52 PM,77.0,63.0,62,29.87,10.0,Variable,3.5,-,N/A,,Overcast,0,2013-07-11 19:52:00
4:52 PM,78.1,61.0,56,29.88,10.0,NNW,4.6,-,N/A,,Overcast,330,2013-07-11 20:52:00
5:52 PM,75.0,57.9,55,29.91,10.0,North,6.9,-,N/A,,Overcast,360,2013-07-11 21:52:00
6:52 PM,75.0,55.0,50,29.93,10.0,North,8.1,-,N/A,,Clear,360,2013-07-11 22:52:00
7:52 PM,71.1,57.0,61,29.96,10.0,NNW,3.5,-,N/A,,Clear,330,2013-07-11 23:52:00
8:52 PM,63.0,59.0,87,29.98,10.0,Calm,Calm,-,N/A,,Clear,0,2013-07-12 00:52:00
9:52 PM,60.1,57.0,90,30.00,10.0,Calm,Calm,-,N/A,,Clear,0,2013-07-12 01:52:00
10:52 PM,57.9,55.0,90,30.02,10.0,Calm,Calm,-,N/A,,Clear,0,2013-07-12 02:52:00
11:52 PM,55.9,53.1,90,30.04,10.0,Calm,Calm,-,N/A,,Clear,0,2013-07-12 03:52:00